Home > Weather > Bremen > Past weeks

Flag for Germany Past Weather in Bremen, Bremen, Germany — Yesterday and Last 2 Weeks

Now
66 °F

Clear.


Feels Like: 66 °F
Forecast: 56 / 66 °F
Wind: 12 mph from North

Location: Bremen Airport

Current Time: Aug 28, 2016 at 4:38:31 AM

Latest Report: Aug 28, 2016 at 3:50 AM


Visibility: 10 mi

Pressure: 29.98 "Hg

Humidity: 78%

Dew Point: 59 °F

Location of BremenLocation

Past Weather in Bremen — Graph

°F

Bremen Temperature Yesterday

Maximum temperature yesterday: 79 °F (at 3:20 PM)
Minimum temperature yesterday: 63 °F (at 3:20 AM)
Average temperature yesterday: 70 °F

High & Low Weather Summary for the Past Weeks

 TemperatureHumidityPressure
High90 °F (Aug 25, 3:20 PM)100% (Aug 13, 4:50 AM)30.33 "Hg (Aug 13, 4:50 AM)
Low45 °F (Aug 16, 4:50 AM)29% (Aug 25, 4:20 PM)29.80 "Hg (Aug 18, 4:20 PM)
Average65 °F75%30.07 "Hg
* Reported Aug 13 3:20 AM — Aug 28 3:20 AM, Bremen, Weather by CustomWeather, © 2016

Note: Actual official high and low records may vary slightly from our data, if they occured in-between our weather recording intervals... More about our weather records

Advertising

Bremen Weather History for the Previous 24 Hours

Scroll right to see more
 ConditionsComfort  
Time TempWeatherWind HumidityBarometerVisibility
3:20 AM
Sun, Aug 28
68 °FPassing clouds.13 mph73%29.98 "HgN/A
2:50 AM68 °FPassing clouds.9 mph78%29.95 "HgN/A
2:20 AM70 °FPassing clouds.13 mph73%29.92 "HgN/A
1:50 AM70 °FClear.12 mph73%29.92 "Hg10 mi
1:20 AM68 °FPassing clouds.9 mph73%29.95 "HgN/A
12:50 AM70 °FClear.10 mph73%29.95 "Hg10 mi
12:20 AM70 °FPassing clouds.9 mph73%29.95 "HgN/A
11:50 PM
Sat, Aug 27
70 °FPassing clouds.12 mph73%29.95 "HgN/A
11:20 PM70 °FClear.8 mph73%29.98 "Hg10 mi
10:50 PM72 °FClear.10 mph69%29.98 "Hg10 mi
10:20 PM72 °FClear.13 mph69%30.01 "Hg10 mi
9:50 PM72 °FClear.13 mph69%30.01 "Hg10 mi
9:20 PM73 °FSunny.10 mph65%30.01 "Hg10 mi
8:50 PM73 °FSunny.9 mph65%30.01 "Hg10 mi
8:20 PM75 °FSunny.10 mph61%30.04 "Hg10 mi
7:50 PM75 °FSunny.9 mph61%30.04 "Hg10 mi
7:20 PM77 °FSunny.10 mph57%30.04 "Hg10 mi
6:50 PM77 °FSunny.10 mph57%30.04 "Hg10 mi
6:20 PM79 °FSunny.13 mph51%30.07 "Hg10 mi
5:50 PM79 °FSunny.13 mph51%30.07 "Hg10 mi
5:20 PM79 °FPassing clouds.12 mph51%30.07 "HgN/A
4:50 PM79 °FPassing clouds.10 mph51%30.09 "HgN/A
4:20 PM79 °FPassing clouds.9 mph51%30.09 "HgN/A
3:50 PM79 °FPassing clouds.8 mph51%30.09 "HgN/A
3:20 PM79 °FPassing clouds.9 mph48%30.09 "HgN/A
2:50 PM77 °FPassing clouds.9 mph51%30.12 "HgN/A
2:20 PM77 °FPassing clouds.8 mph51%30.12 "HgN/A
1:50 PM77 °FPassing clouds.8 mph54%30.12 "HgN/A
1:20 PM75 °FPassing clouds.8 mph54%30.12 "HgN/A
12:50 PM73 °FPassing clouds.7 mph61%30.15 "HgN/A
12:20 PM72 °FPassing clouds.8 mph65%30.15 "HgN/A
11:50 AM72 °FPassing clouds.8 mph65%30.15 "HgN/A
11:20 AM70 °FPassing clouds.8 mph69%30.15 "HgN/A
10:50 AM70 °FScattered clouds.8 mph69%30.15 "HgN/A
10:20 AM68 °FScattered clouds.9 mph73%30.15 "HgN/A
9:50 AM68 °FScattered clouds.8 mph73%30.15 "HgN/A
9:20 AM64 °FPartly sunny.8 mph83%30.15 "HgN/A
8:50 AM64 °FPartly sunny.8 mph83%30.15 "HgN/A
8:20 AM64 °FPartly sunny.6 mph88%30.15 "HgN/A
7:50 AM63 °FPartly sunny.6 mph94%30.15 "HgN/A
7:20 AM63 °FPassing clouds.6 mph94%30.15 "HgN/A
6:50 AM63 °FPassing clouds.6 mph94%30.15 "HgN/A
6:20 AM63 °FPassing clouds.7 mph94%30.15 "HgN/A
5:50 AM63 °FPassing clouds.5 mph94%30.15 "HgN/A
5:20 AM63 °FPartly cloudy.6 mph94%30.15 "HgN/A
4:50 AM63 °FPassing clouds.5 mph94%30.15 "HgN/A
4:20 AM63 °FPartly cloudy.6 mph94%30.15 "HgN/A
Weather by CustomWeather, © 2016

See weather overviewHow to use our weather pages